Regional Weather Roundup
Issued by NWS State College, PA

Home | Current Version | Previous Version | Text Only | Print | Product List | Glossary On
Versions: 1 2 3 4 5 6 7 8 9 10 11 12 13 14 15 16 17 18 19 20 21 22 23 24 25 26 27 28 29 30 31 32 33 34 35 36 37 38 39 40 41 42 43 44 45 46 47 48 49 50
000
ASUS41 KCTP 290510
RWRCTP

REGIONAL WEATHER ROUNDUP
NATIONAL WEATHER SERVICE STATE COLLEGE PA
100 AM EDT SAT APR 29 2017

Note: "fair" indicates few or no clouds below 12,000 feet with no
significant weather and/or obstructions to visibility.

* = STATION THAT DOES NOT REPORT PRECIPITATION /E.G. RAIN...SNOW...ETC/
    THUNDER OR FOG.

PAZ002>004-007>009-013>016-020>023-029>032-290600-
WESTERN PENNSYLVANIA

CITY           SKY/WX    TMP DP  RH WIND       PRES   REMARKS
ERIE           CLOUDY    58  50  75 S12       29.98S
MEADVILLE      LGT RAIN  54  52  93 VRB3      30.00F
FRANKLIN*      CLOUDY    52  46  82 SE12      30.03F
NEW CASTLE     LGT RAIN  55  54  96 VRB3      30.02F
BEAVER COUNTY  NOT AVBL
BUTLER*        CLOUDY    54  50  87 E9        30.03F
PITTSBURGH INT LGT RAIN  55  53  93 SE8       30.04F
PITTSBURGH     LGT RAIN  55  50  83 E10       30.04S
INDIANA*       CLOUDY    55  54  94 E7        30.12R
LATROBE        RAIN      55  54  94 E6        30.11R
WASHINGTON CO* CLOUDY    55  52  88 SE5       30.10R
$$

PAZ004>006-010>012-017>019-024>028-033>037-041-042-045-046-049>053-290600-
CENTRAL PENNSYLVANIA

CITY           SKY/WX    TMP DP  RH WIND       PRES   REMARKS
BRADFORD       LGT RAIN  54  49  83 S7        30.05F
DUBOIS         LGT RAIN  53  50  89 SE6       30.07F FOG
CLEARFIELD     RAIN      53  52  96 VRB3      30.11S
JOHNSTOWN      TSTM      55  45  68 NE12      30.09R
ALTOONA        LGT RAIN  61  48  62 NE8       30.07R
STATE COLLEGE  DRIZZLE   58  50  73 NE3       30.10R
WILLIAMSPORT   LGT RAIN  61  52  72 CALM      30.08R
SELINSGROVE    CLOUDY    65  50  58 N7        30.07R
FT INDIANTOWN  CLOUDY    63  57  80 CALM      30.04R
CAPITAL CITY   CLOUDY    70  61  73 CALM      30.01F
HARRISBURG     CLOUDY    68  61  78 CALM      30.01F
YORK           CLOUDY    71  64  78 S6        30.02F
$$

PAZ038>040-043-044-047-048-054-055-060>062-067>071-290600-
EASTERN PENNSYLVANIA

CITY           SKY/WX    TMP DP  RH WIND       PRES   REMARKS
SCRANTON       CLOUDY    65  41  41 E3        30.05R
MOUNT POCONO   CLOUDY    60  42  51 S3        30.08F
ALLENTOWN      CLOUDY    62  50  64 N5        30.04F
QUAKERTOWN*    CLOUDY    61  54  77 CALM      30.06F
READING        CLOUDY    64  59  83 NW5       30.04S
LANCASTER      MOCLDY    65  60  84 NE5       30.04F
COATESVILLE    PTCLDY    66  59  77 CALM      30.07F
POTTSTOWN      CLOUDY    64  57  78 CALM      30.06F
BLUE BELL      PTCLDY    61  59  94 CALM      30.06F
DOYLESTOWN     PTCLDY    63  59  87 CALM      30.04F
WILLOW GROVE   NOT AVBL
NORTH PHILA    CLOUDY    68  58  70 CALM      30.06R
PHILADELPHIA   MOCLDY    68  59  73 S3        30.05F
$$



USA.gov is the U.S. government's official web portal to all federal, state and local government web resources and services.